| time (UTC) | temp C | wind direction | speed KPH | gust KPH | rain 1hr cm | rain 24hr cm | rain mn cm | humidity % | barometer mb |
| 20260508034557 | 7 | 318 | 0.0 | 6.4 | 0.00 | 0.10 | 0.08 | 54 | 1009.6 |
| 20260508033056 | 8 | 355 | 0.0 | 6.4 | 0.00 | 0.10 | 0.08 | 52 | 1009.7 |
| 20260508031556 | 9 | 5 | 1.6 | 6.4 | 0.00 | 0.10 | 0.08 | 48 | 1009.5 |
| 20260508030055 | 10 | 13 | 0.0 | 12.9 | 0.00 | 0.10 | 0.08 | 47 | 1009.7 |
| 20260508024558 | 10 | 346 | 4.8 | 17.7 | 0.00 | 0.10 | 0.08 | 45 | 1009.6 |
| 20260508023056 | 10 | 346 | 3.2 | 12.9 | 0.00 | 0.10 | 0.08 | 45 | 1009.4 |
| 20260508021555 | 10 | 332 | 4.8 | 22.5 | 0.00 | 0.10 | 0.08 | 43 | 1009.2 |
| 20260508020154 | 11 | 59 | 4.8 | 17.7 | 0.00 | 0.10 | 0.08 | 43 | 1009.1 |
| 20260508014551 | 11 | 332 | 3.2 | 16.1 | 0.00 | 0.10 | 0.08 | 43 | 1008.8 |
| 20260508013050 | 11 | 323 | 3.2 | 12.9 | 0.00 | 0.10 | 0.08 | 44 | 1008.7 |
| 20260508011550 | 11 | 336 | 3.2 | 9.7 | 0.00 | 0.10 | 0.08 | 45 | 1008.4 |
| 20260508010049 | 11 | 298 | 1.6 | 6.4 | 0.00 | 0.10 | 0.08 | 47 | 1008.2 |
| 20260508004548 | 11 | 288 | 0.0 | 4.8 | 0.00 | 0.13 | 0.08 | 49 | 1008.1 |
| 20260508003048 | 12 | 261 | 0.0 | 4.8 | 0.00 | 0.13 | 0.08 | 45 | 1007.8 |
| 20260508001547 | 12 | 261 | 0.0 | 8.0 | 0.00 | 0.13 | 0.08 | 42 | 1007.5 |
| 20260508000047 | 12 | 269 | 1.6 | 4.8 | 0.00 | 0.13 | 0.08 | 42 | 1007.3 |
| 20260507234546 | 13 | 245 | 1.6 | 11.3 | 0.00 | 0.13 | 0.08 | 39 | 1007.3 |
| 20260507233046 | 13 | 313 | 4.8 | 14.5 | 0.00 | 0.13 | 0.08 | 37 | 1007.2 |
| 20260507231552 | 14 | 239 | 4.8 | 14.5 | 0.00 | 0.13 | 0.08 | 38 | 1007.0 |
| 20260507230048 | 14 | 262 | 6.4 | 22.5 | 0.00 | 0.13 | 0.08 | 36 | 1006.9 |
| 20260507224544 | 15 | 277 | 6.4 | 16.1 | 0.00 | 0.15 | 0.08 | 36 | 1006.5 |
| 20260507223044 | 15 | 355 | 9.7 | 22.5 | 0.00 | 0.15 | 0.08 | 33 | 1006.4 |
| 20260507221544 | 15 | 301 | 12.9 | 30.6 | 0.00 | 0.15 | 0.08 | 33 | 1006.3 |
| 20260507220041 | 16 | 318 | 11.3 | 24.1 | 0.00 | 0.15 | 0.08 | 35 | 1006.1 |
| 20260507214602 | 16 | 313 | 6.4 | 25.7 | 0.00 | 0.36 | 0.08 | 33 | 1006.3 |
| 20260507213040 | 16 | 240 | 12.9 | 24.1 | 0.00 | 0.36 | 0.08 | 32 | 1006.2 |
| 20260507211540 | 17 | 250 | 11.3 | 24.1 | 0.00 | 0.36 | 0.08 | 32 | 1006.1 |
| 20260507210050 | 17 | 265 | 9.7 | 24.1 | 0.00 | 0.36 | 0.08 | 33 | 1006.0 |
| 20260507204540 | 17 | 273 | 12.9 | 30.6 | 0.00 | 0.48 | 0.08 | 33 | 1005.9 |
| 20260507203048 | 17 | 302 | 8.0 | 20.9 | 0.00 | 0.48 | 0.08 | 32 | 1006.0 |
| 20260507201543 | 18 | 285 | 6.4 | 25.7 | 0.00 | 0.48 | 0.08 | 32 | 1005.8 |
| 20260507200038 | 18 | 261 | 12.9 | 24.1 | 0.00 | 0.48 | 0.08 | 32 | 1005.9 |
| 20260507194603 | 18 | 272 | 12.9 | 24.1 | 0.00 | 0.56 | 0.08 | 31 | 1005.9 |
| 20260507193036 | 18 | 324 | 14.5 | 27.4 | 0.00 | 0.56 | 0.08 | 35 | 1006.0 |
| 20260507191535 | 18 | 286 | 12.9 | 24.1 | 0.00 | 0.56 | 0.08 | 32 | 1006.1 |
| 20260507190033 | 18 | 274 | 8.0 | 24.1 | 0.00 | 0.56 | 0.08 | 34 | 1006.1 |
| 20260507184530 | 18 | 273 | 9.7 | 24.1 | 0.00 | 0.56 | 0.08 | 39 | 1006.2 |
| 20260507183035 | 17 | 304 | 6.4 | 22.5 | 0.00 | 0.56 | 0.08 | 44 | 1006.4 |
| 20260507181525 | 18 | 217 | 6.4 | 22.5 | 0.00 | 0.56 | 0.08 | 41 | 1006.4 |
| 20260507180024 | 17 | 247 | 12.9 | 25.7 | 0.00 | 0.56 | 0.08 | 43 | 1006.6 |
| 20260507174530 | 17 | 300 | 12.9 | 27.4 | 0.00 | 0.56 | 0.08 | 45 | 1006.7 |
| 20260507173020 | 16 | 259 | 14.5 | 33.8 | 0.00 | 0.56 | 0.08 | 46 | 1006.6 |
| 20260507171514 | 15 | 301 | 12.9 | 32.2 | 0.00 | 0.56 | 0.08 | 55 | 1006.8 |
| 20260507170012 | 12 | 263 | 6.4 | 16.1 | 0.00 | 0.56 | 0.08 | 71 | 1006.9 |
| 20260507164511 | 12 | 219 | 11.3 | 22.5 | 0.00 | 0.56 | 0.08 | 75 | 1007.2 |
| 20260507163010 | 11 | 193 | 8.0 | 17.7 | 0.00 | 0.56 | 0.08 | 78 | 1007.4 |
| 20260507161509 | 10 | 179 | 6.4 | 17.7 | 0.00 | 0.56 | 0.08 | 80 | 1007.7 |
| 20260507160008 | 11 | 252 | 6.4 | 16.1 | 0.00 | 0.56 | 0.08 | 79 | 1007.9 |
| 20260507154516 | 12 | 212 | 9.7 | 20.9 | 0.00 | 0.56 | 0.08 | 74 | 1007.9 |
| 20260507153017 | 12 | 241 | 6.4 | 20.9 | 0.00 | 0.56 | 0.08 | 76 | 1008.1 |
| 20260507151505 | 11 | 200 | 6.4 | 24.1 | 0.00 | 0.56 | 0.08 | 81 | 1008.2 |
| 20260507150006 | 12 | 134 | 6.4 | 16.1 | 0.00 | 0.56 | 0.08 | 79 | 1008.2 |
| 20260507144506 | 11 | 207 | 9.7 | 16.1 | 0.00 | 0.56 | 0.08 | 80 | 1008.3 |
| 20260507143004 | 11 | 195 | 8.0 | 14.5 | 0.00 | 0.56 | 0.08 | 79 | 1008.2 |
| 20260507141502 | 12 | 194 | 8.0 | 16.1 | 0.00 | 0.56 | 0.08 | 79 | 1008.4 |
| 20260507140004 | 12 | 183 | 4.8 | 14.5 | 0.00 | 0.56 | 0.08 | 80 | 1008.6 |
| 20260507134600 | 12 | 232 | 8.0 | 14.5 | 0.00 | 0.56 | 0.08 | 80 | 1008.6 |
| 20260507133106 | 12 | 219 | 6.4 | 16.1 | 0.00 | 0.56 | 0.08 | 79 | 1008.7 |
| 20260507131612 | 12 | 184 | 4.8 | 14.5 | 0.00 | 0.56 | 0.08 | 75 | 1008.8 |
| 20260507130054 | 13 | 304 | 4.8 | 9.7 | 0.00 | 0.56 | 0.08 | 74 | 1008.8 |
| 20260507124549 | 12 | 289 | 6.4 | 14.5 | 0.00 | 0.56 | 0.08 | 80 | 1008.9 |
| 20260507123046 | 11 | 265 | 4.8 | 11.3 | 0.00 | 0.56 | 0.08 | 81 | 1009.0 |
| 20260507121543 | 10 | 280 | 0.0 | 8.0 | 0.00 | 0.56 | 0.08 | 86 | 1008.9 |
| 20260507120042 | 8 | 311 | 1.6 | 8.0 | 0.00 | 0.56 | 0.08 | 88 | 1009.0 |
| 20260507114541 | 8 | 331 | 0.0 | 6.4 | 0.00 | 0.56 | 0.08 | 89 | 1009.1 |
| 20260507113039 | 8 | 297 | 0.0 | 4.8 | 0.03 | 0.56 | 0.08 | 91 | 1009.0 |
| 20260507111537 | 8 | 323 | 0.0 | 8.0 | 0.03 | 0.56 | 0.08 | 91 | 1009.0 |
| 20260507110037 | 7 | 327 | 0.0 | 4.8 | 0.03 | 0.56 | 0.08 | 91 | 1009.1 |
| 20260507104538 | 7 | 323 | 1.6 | 4.8 | 0.03 | 0.56 | 0.08 | 91 | 1008.9 |
| 20260507103036 | 7 | 319 | 0.0 | 3.2 | 0.00 | 0.53 | 0.05 | 91 | 1009.7 |
| 20260507101533 | 7 | 332 | 1.6 | 4.8 | 0.00 | 0.53 | 0.05 | 91 | 1009.2 |
| 20260507100035 | 7 | 273 | 1.6 | 4.8 | 0.00 | 0.53 | 0.05 | 91 | 1009.1 |
| 20260507094531 | 7 | 323 | 1.6 | 8.0 | 0.00 | 0.53 | 0.05 | 91 | 1009.1 |
| 20260507093029 | 8 | 306 | 3.2 | 8.0 | 0.00 | 0.53 | 0.05 | 91 | 1008.7 |
| 20260507091528 | 8 | 339 | 1.6 | 12.9 | 0.00 | 0.53 | 0.05 | 91 | 1008.3 |
| 20260507090026 | 8 | 345 | 4.8 | 9.7 | 0.00 | 0.53 | 0.05 | 92 | 1008.4 |
| 20260507084523 | 8 | 15 | 1.6 | 12.9 | 0.00 | 0.53 | 0.05 | 92 | 1008.4 |
| 20260507083022 | 8 | 317 | 3.2 | 9.7 | 0.00 | 0.53 | 0.05 | 93 | 1008.8 |
| 20260507081520 | 8 | 349 | 1.6 | 8.0 | 0.00 | 0.53 | 0.05 | 93 | 1008.3 |
| 20260507080017 | 9 | 342 | 3.2 | 8.0 | 0.00 | 0.53 | 0.05 | 93 | 1007.9 |
| 20260507074515 | 9 | 327 | 1.6 | 4.8 | 0.00 | 0.53 | 0.05 | 93 | 1008.2 |
| 20260507073014 | 9 | 327 | 1.6 | 4.8 | 0.00 | 0.53 | 0.05 | 93 | 1008.2 |
| 20260507071531 | 9 | 344 | 3.2 | 8.0 | 0.00 | 0.53 | 0.05 | 93 | 1007.7 |
| 20260507070012 | 10 | 311 | 1.6 | 8.0 | 0.00 | 0.53 | 0.05 | 93 | 1007.6 |
| 20260507064507 | 10 | 308 | 1.6 | 4.8 | 0.00 | 0.53 | 0.05 | 93 | 1007.7 |
| 20260507063008 | 10 | 308 | 0.0 | 3.2 | 0.00 | 0.53 | 0.05 | 93 | 1007.6 |
| 20260507061506 | 10 | 308 | 0.0 | 3.2 | 0.03 | 0.53 | 0.05 | 93 | 1007.3 |
| 20260507060004 | 10 | 328 | 1.6 | 9.7 | 0.03 | 0.53 | 0.05 | 93 | 1007.6 |
| 20260507054503 | 10 | 36 | 4.8 | 12.9 | 0.03 | 0.53 | 0.05 | 93 | 1007.1 |
| 20260507053129 | 11 | 30 | 1.6 | 12.9 | 0.03 | 0.53 | 0.05 | 94 | 1007.0 |
| 20260507051605 | 11 | 34 | 9.7 | 16.1 | 0.03 | 0.51 | 0.03 | 95 | 1007.2 |
| 20260507050056 | 10 | 251 | 1.6 | 8.0 | 0.03 | 0.51 | 0.03 | 93 | 1007.0 |
| 20260507044557 | 10 | 240 | 3.2 | 4.8 | 0.03 | 0.51 | 0.03 | 93 | 1006.7 |
| 20260507043053 | 11 | 257 | 1.6 | 4.8 | 0.03 | 0.51 | 0.03 | 94 | 1006.4 |
| 20260507041552 | 11 | 246 | 1.6 | 6.4 | 0.03 | 0.48 | 0.00 | 94 | 1006.3 |
| 20260507040047 | 10 | 221 | 4.8 | 12.9 | 0.03 | 0.48 | 0.00 | 94 | 1006.7 |